| time (UTC) | temp C | wind direction | speed KPH | gust KPH | rain 1hr cm | rain 24hr cm | rain mn cm | humidity % | barometer mb |
| 20260906212737 | 31 | 142 | 4.8 | 17.7 | 0.00 | 0.00 | 0.00 | 41 | 1016.0 |
| 20260906212237 | 31 | 174 | 4.8 | 17.7 | 0.00 | 0.00 | 0.00 | 40 | 1016.1 |
| 20260906211737 | 31 | 118 | 4.8 | 14.5 | 0.00 | 0.00 | 0.00 | 40 | 1016.1 |
| 20260906211237 | 31 | 88 | 4.8 | 17.7 | 0.00 | 0.00 | 0.00 | 40 | 1016.2 |
| 20260906210737 | 31 | 141 | 6.4 | 17.7 | 0.00 | 0.00 | 0.00 | 39 | 1016.3 |
| 20260906210237 | 31 | 124 | 4.8 | 12.9 | 0.00 | 0.00 | 0.00 | 39 | 1016.4 |
| 20260906205737 | 31 | 74 | 3.2 | 14.5 | 0.00 | 0.00 | 0.00 | 41 | 1016.5 |
| 20260906205237 | 31 | 141 | 6.4 | 14.5 | 0.00 | 0.00 | 0.00 | 40 | 1016.5 |
| 20260906204737 | 31 | 134 | 4.8 | 14.5 | 0.00 | 0.00 | 0.00 | 40 | 1016.6 |
| 20260906204237 | 31 | 126 | 4.8 | 16.1 | 0.00 | 0.00 | 0.00 | 39 | 1016.6 |
| 20260906203737 | 30 | 156 | 3.2 | 16.1 | 0.00 | 0.00 | 0.00 | 41 | 1016.8 |
| 20260906203237 | 30 | 135 | 4.8 | 16.1 | 0.00 | 0.00 | 0.00 | 39 | 1016.8 |
| 20260906202737 | 30 | 69 | 6.4 | 16.1 | 0.00 | 0.00 | 0.00 | 41 | 1016.8 |
| 20260906202237 | 30 | 117 | 4.8 | 16.1 | 0.00 | 0.00 | 0.00 | 42 | 1016.8 |
| 20260906201737 | 30 | 158 | 4.8 | 14.5 | 0.00 | 0.00 | 0.00 | 41 | 1016.8 |
| 20260906201237 | 30 | 102 | 4.8 | 11.3 | 0.00 | 0.00 | 0.00 | 45 | 1016.8 |
| 20260906200737 | 30 | 87 | 1.6 | 16.1 | 0.00 | 0.00 | 0.00 | 46 | 1016.9 |
| 20260906200258 | 29 | 119 | 4.8 | 16.1 | 0.00 | 0.00 | 0.00 | 44 | 1017.1 |
| 20260906195737 | 29 | 83 | 3.2 | 11.3 | 0.00 | 0.00 | 0.00 | 45 | 1017.1 |
| 20260906195237 | 29 | 110 | 4.8 | 11.3 | 0.00 | 0.00 | 0.00 | 46 | 1017.1 |
| 20260906194737 | 29 | 106 | 3.2 | 11.3 | 0.00 | 0.00 | 0.00 | 44 | 1017.2 |
| 20260906194237 | 28 | 96 | 3.2 | 11.3 | 0.00 | 0.00 | 0.00 | 46 | 1017.3 |
| 20260906193737 | 28 | 83 | 3.2 | 11.3 | 0.00 | 0.00 | 0.00 | 47 | 1017.4 |
| 20260906193237 | 28 | 87 | 4.8 | 11.3 | 0.00 | 0.00 | 0.00 | 46 | 1017.4 |
| 20260906192737 | 28 | 63 | 3.2 | 11.3 | 0.00 | 0.00 | 0.00 | 48 | 1017.4 |
| 20260906192237 | 28 | 124 | 4.8 | 11.3 | 0.00 | 0.00 | 0.00 | 47 | 1017.6 |
| 20260906191737 | 28 | 105 | 3.2 | 9.7 | 0.00 | 0.00 | 0.00 | 46 | 1017.7 |
| 20260906191237 | 28 | 88 | 4.8 | 11.3 | 0.00 | 0.00 | 0.00 | 47 | 1017.7 |
| 20260906190737 | 28 | 172 | 1.6 | 9.7 | 0.00 | 0.00 | 0.00 | 45 | 1017.7 |
| 20260906190237 | 28 | 150 | 3.2 | 8.0 | 0.00 | 0.00 | 0.00 | 47 | 1017.9 |
| 20260906185737 | 28 | 6 | 3.2 | 11.3 | 0.00 | 0.00 | 0.00 | 47 | 1018.0 |
| 20260906185237 | 28 | 81 | 4.8 | 11.3 | 0.00 | 0.00 | 0.00 | 47 | 1018.1 |
| 20260906184737 | 28 | 310 | 1.6 | 6.4 | 0.00 | 0.00 | 0.00 | 48 | 1018.2 |
| 20260906184237 | 28 | 345 | 1.6 | 6.4 | 0.00 | 0.00 | 0.00 | 50 | 1018.4 |
| 20260906183737 | 27 | 85 | 1.6 | 9.7 | 0.00 | 0.00 | 0.00 | 49 | 1018.4 |
| 20260906183237 | 27 | 64 | 3.2 | 9.7 | 0.00 | 0.00 | 0.00 | 49 | 1018.6 |
| 20260906182737 | 27 | 103 | 3.2 | 9.7 | 0.00 | 0.00 | 0.00 | 50 | 1018.8 |
| 20260906182237 | 27 | 118 | 3.2 | 9.7 | 0.00 | 0.00 | 0.00 | 50 | 1018.8 |
| 20260906181737 | 27 | 59 | 4.8 | 9.7 | 0.00 | 0.00 | 0.00 | 51 | 1019.0 |
| 20260906181237 | 27 | 41 | 4.8 | 11.3 | 0.00 | 0.00 | 0.00 | 50 | 1019.1 |
| 20260906180737 | 27 | 4 | 3.2 | 11.3 | 0.00 | 0.00 | 0.00 | 50 | 1019.2 |
| 20260906180237 | 27 | 13 | 1.6 | 9.7 | 0.00 | 0.00 | 0.00 | 52 | 1019.3 |
| 20260906175737 | 27 | 323 | 3.2 | 9.7 | 0.00 | 0.00 | 0.00 | 51 | 1019.2 |
| 20260906175237 | 27 | 37 | 1.6 | 8.0 | 0.00 | 0.00 | 0.00 | 50 | 1019.4 |
| 20260906174737 | 27 | 4 | 3.2 | 9.7 | 0.00 | 0.00 | 0.00 | 52 | 1019.5 |
| 20260906174237 | 26 | 17 | 4.8 | 9.7 | 0.00 | 0.00 | 0.00 | 52 | 1019.5 |
| 20260906173737 | 26 | 10 | 3.2 | 9.7 | 0.00 | 0.00 | 0.00 | 53 | 1019.5 |
| 20260906173237 | 26 | 325 | 4.8 | 12.9 | 0.00 | 0.00 | 0.00 | 54 | 1019.4 |
| 20260906172737 | 26 | 315 | 4.8 | 12.9 | 0.00 | 0.00 | 0.00 | 56 | 1019.4 |
| 20260906172237 | 26 | 313 | 3.2 | 9.7 | 0.00 | 0.00 | 0.00 | 56 | 1019.4 |
| 20260906171737 | 26 | 252 | 1.6 | 11.3 | 0.00 | 0.00 | 0.00 | 55 | 1019.5 |
| 20260906171237 | 26 | 315 | 4.8 | 11.3 | 0.00 | 0.00 | 0.00 | 57 | 1019.6 |
| 20260906170737 | 25 | 330 | 3.2 | 9.7 | 0.00 | 0.00 | 0.00 | 57 | 1019.6 |
| 20260906170237 | 25 | 6 | 3.2 | 12.9 | 0.00 | 0.00 | 0.00 | 58 | 1019.7 |
| 20260906165737 | 25 | 327 | 6.4 | 12.9 | 0.00 | 0.00 | 0.00 | 58 | 1019.7 |
| 20260906165237 | 25 | 341 | 4.8 | 11.3 | 0.00 | 0.00 | 0.00 | 59 | 1019.7 |
| 20260906164737 | 25 | 308 | 4.8 | 8.0 | 0.00 | 0.00 | 0.00 | 59 | 1019.7 |
| 20260906164237 | 24 | 300 | 3.2 | 9.7 | 0.00 | 0.00 | 0.00 | 61 | 1019.8 |
| 20260906163737 | 24 | 317 | 3.2 | 9.7 | 0.00 | 0.00 | 0.00 | 62 | 1019.9 |
| 20260906163237 | 24 | 298 | 3.2 | 9.7 | 0.00 | 0.00 | 0.00 | 62 | 1019.9 |
| 20260906162737 | 24 | 287 | 3.2 | 8.0 | 0.00 | 0.00 | 0.00 | 63 | 1019.9 |
| 20260906162237 | 23 | 298 | 3.2 | 8.0 | 0.00 | 0.00 | 0.00 | 63 | 1020.0 |
| 20260906161737 | 23 | 266 | 1.6 | 8.0 | 0.00 | 0.00 | 0.00 | 65 | 1020.0 |
| 20260906161237 | 23 | 287 | 3.2 | 12.9 | 0.00 | 0.00 | 0.00 | 66 | 1020.0 |
| 20260906160737 | 23 | 306 | 4.8 | 12.9 | 0.00 | 0.00 | 0.00 | 66 | 1020.1 |
| 20260906160237 | 22 | 299 | 3.2 | 11.3 | 0.00 | 0.00 | 0.00 | 67 | 1020.1 |
| 20260906155737 | 22 | 338 | 4.8 | 11.3 | 0.00 | 0.00 | 0.00 | 68 | 1020.0 |
| 20260906155237 | 22 | 308 | 4.8 | 12.9 | 0.00 | 0.00 | 0.00 | 68 | 1020.0 |
| 20260906154737 | 22 | 331 | 3.2 | 12.9 | 0.00 | 0.00 | 0.00 | 70 | 1019.9 |
| 20260906154237 | 21 | 288 | 4.8 | 9.7 | 0.00 | 0.00 | 0.00 | 71 | 1019.9 |
| 20260906153737 | 21 | 263 | 3.2 | 9.7 | 0.00 | 0.00 | 0.00 | 71 | 1019.9 |
| 20260906153237 | 21 | 245 | 3.2 | 11.3 | 0.00 | 0.00 | 0.00 | 72 | 1019.9 |
| 20260906152737 | 21 | 296 | 4.8 | 11.3 | 0.00 | 0.00 | 0.00 | 72 | 1019.9 |
| 20260906152237 | 21 | 310 | 3.2 | 9.7 | 0.00 | 0.00 | 0.00 | 74 | 1020.1 |
| 20260906151737 | 20 | 294 | 4.8 | 9.7 | 0.00 | 0.00 | 0.00 | 73 | 1020.1 |
| 20260906151237 | 20 | 316 | 6.4 | 9.7 | 0.00 | 0.00 | 0.00 | 75 | 1020.1 |
| 20260906150758 | 20 | 292 | 1.6 | 11.3 | 0.00 | 0.00 | 0.00 | 75 | 1020.1 |
| 20260906150237 | 20 | 309 | 4.8 | 11.3 | 0.00 | 0.00 | 0.00 | 76 | 1020.2 |
| 20260906145737 | 20 | 293 | 1.6 | 11.3 | 0.00 | 0.00 | 0.00 | 76 | 1020.2 |
| 20260906145237 | 20 | 282 | 4.8 | 11.3 | 0.00 | 0.00 | 0.00 | 77 | 1020.1 |
| 20260906144758 | 20 | 331 | 6.4 | 11.3 | 0.00 | 0.00 | 0.00 | 77 | 1020.2 |
| 20260906144237 | 20 | 305 | 3.2 | 11.3 | 0.00 | 0.00 | 0.00 | 77 | 1020.3 |
| 20260906143737 | 19 | 314 | 4.8 | 11.3 | 0.00 | 0.00 | 0.00 | 78 | 1020.2 |
| 20260906143237 | 19 | 326 | 4.8 | 9.7 | 0.00 | 0.00 | 0.00 | 79 | 1020.2 |
| 20260906142737 | 18 | 342 | 4.8 | 11.3 | 0.00 | 0.00 | 0.00 | 80 | 1020.3 |
| 20260906142237 | 18 | 326 | 4.8 | 11.3 | 0.00 | 0.00 | 0.00 | 81 | 1020.1 |
| 20260906141737 | 18 | 297 | 4.8 | 11.3 | 0.00 | 0.00 | 0.00 | 81 | 1020.0 |
| 20260906141237 | 18 | 328 | 4.8 | 16.1 | 0.00 | 0.00 | 0.00 | 82 | 1020.0 |
| 20260906140737 | 18 | 297 | 4.8 | 16.1 | 0.00 | 0.00 | 0.00 | 84 | 1019.9 |
| 20260906140237 | 17 | 268 | 4.8 | 11.3 | 0.00 | 0.00 | 0.00 | 84 | 1019.7 |
| 20260906135737 | 17 | 310 | 4.8 | 11.3 | 0.00 | 0.00 | 0.00 | 84 | 1019.7 |
| 20260906135237 | 17 | 296 | 3.2 | 11.3 | 0.00 | 0.00 | 0.00 | 85 | 1019.7 |
| 20260906134737 | 17 | 285 | 3.2 | 11.3 | 0.00 | 0.00 | 0.00 | 86 | 1019.7 |
| 20260906134237 | 16 | 287 | 1.6 | 8.0 | 0.00 | 0.00 | 0.00 | 87 | 1019.7 |
| 20260906133737 | 16 | 300 | 3.2 | 8.0 | 0.00 | 0.00 | 0.00 | 87 | 1019.6 |
| 20260906133237 | 16 | 280 | 3.2 | 8.0 | 0.00 | 0.00 | 0.00 | 88 | 1019.7 |
| 20260906132737 | 16 | 299 | 0.0 | 9.7 | 0.00 | 0.00 | 0.00 | 88 | 1019.6 |
| 20260906132237 | 16 | 221 | 3.2 | 9.7 | 0.00 | 0.00 | 0.00 | 88 | 1019.3 |
| 20260906131737 | 15 | 275 | 3.2 | 9.7 | 0.00 | 0.00 | 0.00 | 88 | 1019.2 |
| 20260906131237 | 15 | 246 | 3.2 | 9.7 | 0.00 | 0.00 | 0.00 | 88 | 1019.2 |
| 20260906130737 | 15 | 223 | 1.6 | 8.0 | 0.00 | 0.00 | 0.00 | 88 | 1019.3 |
| 20260906130237 | 15 | 300 | 1.6 | 4.8 | 0.00 | 0.00 | 0.00 | 88 | 1019.4 |
| 20260906125737 | 15 | 255 | 0.0 | 8.0 | 0.00 | 0.00 | 0.00 | 88 | 1019.3 |
| 20260906125237 | 15 | 273 | 3.2 | 8.0 | 0.00 | 0.00 | 0.00 | 88 | 1019.2 |
| 20260906124737 | 15 | 321 | 0.0 | 8.0 | 0.00 | 0.00 | 0.00 | 87 | 1019.2 |
| 20260906124237 | 15 | 242 | 0.0 | 4.8 | 0.00 | 0.00 | 0.00 | 87 | 1019.1 |
| 20260906123737 | 15 | 267 | 0.0 | 4.8 | 0.00 | 0.00 | 0.00 | 86 | 1018.9 |
| 20260906123237 | 15 | 324 | 1.6 | 6.4 | 0.00 | 0.00 | 0.00 | 86 | 1019.0 |
| 20260906122737 | 15 | 337 | 0.0 | 6.4 | 0.00 | 0.00 | 0.00 | 86 | 1019.1 |
| 20260906122237 | 15 | 315 | 1.6 | 4.8 | 0.00 | 0.00 | 0.00 | 85 | 1019.2 |
| 20260906121737 | 15 | 317 | 0.0 | 4.8 | 0.00 | 0.00 | 0.00 | 85 | 1019.1 |
| 20260906121237 | 15 | 317 | 0.0 | 4.8 | 0.00 | 0.00 | 0.00 | 84 | 1019.0 |
| 20260906120737 | 15 | 317 | 0.0 | 3.2 | 0.00 | 0.00 | 0.00 | 83 | 1019.0 |
| 20260906120237 | 15 | 13 | 0.0 | 0.0 | 0.00 | 0.00 | 0.00 | 81 | 1018.9 |
| 20260906115737 | 15 | 12 | 0.0 | 3.2 | 0.00 | 0.00 | 0.00 | 81 | 1019.0 |
| 20260906115237 | 15 | 12 | 0.0 | 3.2 | 0.00 | 0.00 | 0.00 | 81 | 1019.0 |
| 20260906114737 | 15 | 11 | 0.0 | 1.6 | 0.00 | 0.00 | 0.00 | 80 | 1019.0 |
| 20260906114237 | 15 | 21 | 0.0 | 1.6 | 0.00 | 0.00 | 0.00 | 80 | 1019.0 |
| 20260906113737 | 15 | 21 | 0.0 | 4.8 | 0.00 | 0.00 | 0.00 | 80 | 1018.8 |
| 20260906113237 | 15 | 12 | 0.0 | 4.8 | 0.00 | 0.00 | 0.00 | 79 | 1018.8 |
| 20260906112737 | 15 | 35 | 3.2 | 4.8 | 0.00 | 0.00 | 0.00 | 77 | 1018.8 |
| 20260906112237 | 16 | 244 | 0.0 | 3.2 | 0.00 | 0.00 | 0.00 | 78 | 1018.7 |
| 20260906111758 | 16 | 244 | 0.0 | 4.8 | 0.00 | 0.00 | 0.00 | 78 | 1018.6 |
| 20260906111237 | 16 | 243 | 1.6 | 6.4 | 0.00 | 0.00 | 0.00 | 76 | 1018.8 |
| 20260906110737 | 16 | 238 | 1.6 | 6.4 | 0.00 | 0.00 | 0.00 | 75 | 1018.8 |
| 20260906110237 | 16 | 228 | 1.6 | 6.4 | 0.00 | 0.00 | 0.00 | 73 | 1018.8 |
| 20260906105737 | 16 | 272 | 1.6 | 6.4 | 0.00 | 0.00 | 0.00 | 72 | 1018.8 |
| 20260906105258 | 17 | 252 | 0.0 | 4.8 | 0.00 | 0.00 | 0.00 | 71 | 1018.7 |
| 20260906104737 | 17 | 253 | 0.0 | 6.4 | 0.00 | 0.00 | 0.00 | 70 | 1018.6 |
| 20260906104237 | 17 | 246 | 1.6 | 6.4 | 0.00 | 0.00 | 0.00 | 70 | 1018.6 |
| 20260906103737 | 17 | 252 | 1.6 | 4.8 | 0.00 | 0.00 | 0.00 | 70 | 1018.6 |
| 20260906103237 | 17 | 250 | 1.6 | 3.2 | 0.00 | 0.00 | 0.00 | 70 | 1018.7 |
| 20260906102737 | 17 | 247 | 0.0 | 3.2 | 0.00 | 0.00 | 0.00 | 71 | 1018.8 |
| 20260906102258 | 17 | 247 | 0.0 | 3.2 | 0.00 | 0.00 | 0.00 | 71 | 1018.9 |
| 20260906101737 | 17 | 247 | 0.0 | 3.2 | 0.00 | 0.00 | 0.00 | 71 | 1018.8 |
| 20260906101237 | 17 | 256 | 0.0 | 4.8 | 0.00 | 0.00 | 0.00 | 71 | 1019.0 |
| 20260906100737 | 17 | 262 | 0.0 | 8.0 | 0.00 | 0.00 | 0.00 | 71 | 1018.9 |
| 20260906100237 | 17 | 254 | 1.6 | 8.0 | 0.00 | 0.00 | 0.00 | 71 | 1018.8 |
| 20260906095737 | 17 | 251 | 1.6 | 3.2 | 0.00 | 0.00 | 0.00 | 71 | 1018.8 |
| 20260906095237 | 18 | 251 | 0.0 | 3.2 | 0.00 | 0.00 | 0.00 | 72 | 1018.8 |
| 20260906094737 | 18 | 249 | 0.0 | 6.4 | 0.00 | 0.00 | 0.00 | 72 | 1018.6 |
| 20260906094237 | 18 | 228 | 3.2 | 6.4 | 0.00 | 0.00 | 0.00 | 72 | 1018.5 |
| 20260906093737 | 18 | 250 | 1.6 | 4.8 | 0.00 | 0.00 | 0.00 | 72 | 1018.4 |
| 20260906093237 | 18 | 247 | 1.6 | 4.8 | 0.00 | 0.00 | 0.00 | 72 | 1018.6 |
| 20260906092737 | 18 | 244 | 0.0 | 4.8 | 0.00 | 0.00 | 0.00 | 73 | 1018.5 |
| 20260906092237 | 18 | 256 | 0.0 | 4.8 | 0.00 | 0.00 | 0.00 | 73 | 1018.6 |
| 20260906091737 | 18 | 257 | 0.0 | 3.2 | 0.00 | 0.00 | 0.00 | 73 | 1018.5 |
| 20260906091238 | 18 | 250 | 0.0 | 4.8 | 0.00 | 0.00 | 0.00 | 73 | 1018.4 |
| 20260906090758 | 18 | 257 | 1.6 | 4.8 | 0.00 | 0.00 | 0.00 | 73 | 1018.4 |
| 20260906090237 | 18 | 258 | 0.0 | 4.8 | 0.00 | 0.00 | 0.00 | 72 | 1018.4 |
| 20260906085737 | 18 | 257 | 0.0 | 4.8 | 0.00 | 0.00 | 0.00 | 72 | 1018.5 |
| 20260906085237 | 18 | 261 | 0.0 | 3.2 | 0.00 | 0.00 | 0.00 | 72 | 1018.6 |
| 20260906084737 | 18 | 260 | 0.0 | 3.2 | 0.00 | 0.00 | 0.00 | 72 | 1018.5 |
| 20260906084237 | 18 | 261 | 0.0 | 4.8 | 0.00 | 0.00 | 0.00 | 72 | 1018.6 |
| 20260906083737 | 18 | 309 | 0.0 | 3.2 | 0.00 | 0.00 | 0.00 | 70 | 1018.5 |
| 20260906083237 | 18 | 318 | 0.0 | 3.2 | 0.00 | 0.00 | 0.00 | 69 | 1018.6 |
| 20260906082737 | 18 | 328 | 0.0 | 3.2 | 0.00 | 0.00 | 0.00 | 68 | 1018.6 |
| 20260906082237 | 18 | 327 | 0.0 | 6.4 | 0.00 | 0.00 | 0.00 | 67 | 1018.7 |
| 20260906081737 | 18 | 327 | 1.6 | 6.4 | 0.00 | 0.00 | 0.00 | 66 | 1018.7 |
| 20260906081237 | 18 | 313 | 0.0 | 4.8 | 0.00 | 0.00 | 0.00 | 65 | 1018.7 |
| 20260906080737 | 18 | 313 | 1.6 | 4.8 | 0.00 | 0.00 | 0.00 | 64 | 1018.6 |
| 20260906080258 | 19 | 334 | 0.0 | 1.6 | 0.00 | 0.00 | 0.00 | 63 | 1018.6 |
| 20260906075737 | 19 | 335 | 0.0 | 1.6 | 0.00 | 0.00 | 0.00 | 62 | 1018.7 |
| 20260906075237 | 19 | 335 | 0.0 | 1.6 | 0.00 | 0.00 | 0.00 | 61 | 1018.8 |
| 20260906074737 | 20 | 334 | 0.0 | 1.6 | 0.00 | 0.00 | 0.00 | 60 | 1018.9 |
| 20260906074237 | 20 | 334 | 0.0 | 0.0 | 0.00 | 0.00 | 0.00 | 59 | 1018.8 |
| 20260906073737 | 20 | 335 | 0.0 | 3.2 | 0.00 | 0.00 | 0.00 | 59 | 1018.9 |
| 20260906073237 | 20 | 336 | 0.0 | 4.8 | 0.00 | 0.00 | 0.00 | 59 | 1018.9 |
| 20260906072737 | 20 | 342 | 1.6 | 6.4 | 0.00 | 0.00 | 0.00 | 59 | 1018.8 |
| 20260906072237 | 20 | 7 | 1.6 | 4.8 | 0.00 | 0.00 | 0.00 | 58 | 1018.8 |
| 20260906071737 | 20 | 89 | 0.0 | 4.8 | 0.00 | 0.00 | 0.00 | 56 | 1018.6 |
| 20260906071237 | 20 | 76 | 0.0 | 4.8 | 0.00 | 0.00 | 0.00 | 55 | 1018.8 |
| 20260906070737 | 20 | 78 | 1.6 | 8.0 | 0.00 | 0.00 | 0.00 | 55 | 1018.6 |
| 20260906070237 | 20 | 85 | 3.2 | 9.7 | 0.00 | 0.00 | 0.00 | 56 | 1018.4 |
| 20260906065737 | 20 | 63 | 1.6 | 8.0 | 0.00 | 0.00 | 0.00 | 54 | 1018.4 |
| 20260906065237 | 21 | 92 | 1.6 | 4.8 | 0.00 | 0.00 | 0.00 | 53 | 1018.3 |
| 20260906064737 | 21 | 23 | 0.0 | 3.2 | 0.00 | 0.00 | 0.00 | 52 | 1018.4 |
| 20260906064258 | 21 | 324 | 0.0 | 6.4 | 0.00 | 0.00 | 0.00 | 51 | 1018.3 |
| 20260906063737 | 21 | 351 | 3.2 | 9.7 | 0.00 | 0.00 | 0.00 | 51 | 1018.2 |
| 20260906063237 | 21 | 333 | 4.8 | 9.7 | 0.00 | 0.00 | 0.00 | 50 | 1018.1 |
| 20260906062737 | 21 | 311 | 3.2 | 9.7 | 0.00 | 0.00 | 0.00 | 50 | 1018.0 |
| 20260906062237 | 21 | 304 | 1.6 | 11.3 | 0.00 | 0.00 | 0.00 | 50 | 1018.1 |
| 20260906061737 | 21 | 230 | 1.6 | 6.4 | 0.00 | 0.00 | 0.00 | 51 | 1018.1 |
| 20260906061237 | 21 | 233 | 1.6 | 6.4 | 0.00 | 0.00 | 0.00 | 51 | 1018.1 |
| 20260906060758 | 21 | 251 | 1.6 | 6.4 | 0.00 | 0.00 | 0.00 | 53 | 1018.0 |
| 20260906060237 | 21 | 257 | 1.6 | 8.0 | 0.00 | 0.00 | 0.00 | 53 | 1018.0 |
| 20260906055737 | 21 | 268 | 1.6 | 9.7 | 0.00 | 0.00 | 0.00 | 51 | 1018.1 |
| 20260906055237 | 21 | 259 | 3.2 | 9.7 | 0.00 | 0.00 | 0.00 | 51 | 1018.0 |
| 20260906054737 | 21 | 215 | 1.6 | 8.0 | 0.00 | 0.00 | 0.00 | 50 | 1018.0 |
| 20260906054237 | 21 | 241 | 3.2 | 8.0 | 0.00 | 0.00 | 0.00 | 50 | 1018.0 |
| 20260906053737 | 21 | 245 | 1.6 | 4.8 | 0.00 | 0.00 | 0.00 | 50 | 1018.0 |
| 20260906053237 | 21 | 302 | 1.6 | 3.2 | 0.00 | 0.00 | 0.00 | 49 | 1017.9 |
| 20260906052737 | 21 | 249 | 0.0 | 3.2 | 0.00 | 0.00 | 0.00 | 48 | 1017.9 |
| 20260906052258 | 21 | 253 | 0.0 | 6.4 | 0.00 | 0.00 | 0.00 | 48 | 1017.8 |
| 20260906051758 | 21 | 262 | 1.6 | 6.4 | 0.00 | 0.00 | 0.00 | 47 | 1017.9 |
| 20260906051237 | 21 | 258 | 1.6 | 4.8 | 0.00 | 0.00 | 0.00 | 46 | 1018.0 |
| 20260906050737 | 21 | 223 | 1.6 | 4.8 | 0.00 | 0.00 | 0.00 | 45 | 1018.0 |
| 20260906050237 | 21 | 228 | 1.6 | 4.8 | 0.00 | 0.00 | 0.00 | 45 | 1018.1 |
| 20260906045737 | 21 | 207 | 1.6 | 4.8 | 0.00 | 0.00 | 0.00 | 44 | 1018.0 |
| 20260906045238 | 22 | 226 | 0.0 | 4.8 | 0.00 | 0.00 | 0.00 | 43 | 1018.0 |
| 20260906044758 | 22 | 223 | 1.6 | 4.8 | 0.00 | 0.00 | 0.00 | 42 | 1018.0 |
| 20260906044237 | 22 | 228 | 0.0 | 3.2 | 0.00 | 0.00 | 0.00 | 42 | 1018.2 |
| 20260906043737 | 22 | 228 | 0.0 | 3.2 | 0.00 | 0.00 | 0.00 | 41 | 1018.0 |
| 20260906043258 | 22 | 228 | 1.6 | 9.7 | 0.00 | 0.00 | 0.00 | 41 | 1018.0 |
| 20260906042737 | 22 | 228 | 1.6 | 9.7 | 0.00 | 0.00 | 0.00 | 40 | 1018.0 |
| 20260906042237 | 23 | 229 | 0.0 | 4.8 | 0.00 | 0.00 | 0.00 | 40 | 1018.0 |
| 20260906041737 | 23 | 228 | 1.6 | 6.4 | 0.00 | 0.00 | 0.00 | 39 | 1018.0 |
| 20260906041258 | 23 | 235 | 1.6 | 6.4 | 0.00 | 0.00 | 0.00 | 38 | 1018.0 |
| 20260906040758 | 23 | 231 | 1.6 | 8.0 | 0.00 | 0.00 | 0.00 | 37 | 1017.9 |
| 20260906040237 | 24 | 241 | 1.6 | 9.7 | 0.00 | 0.00 | 0.00 | 36 | 1018.0 |
| 20260906035737 | 24 | 259 | 3.2 | 11.3 | 0.00 | 0.00 | 0.00 | 35 | 1018.0 |
| 20260906035237 | 25 | 243 | 4.8 | 11.3 | 0.00 | 0.00 | 0.00 | 34 | 1018.0 |
| 20260906034737 | 25 | 240 | 3.2 | 11.3 | 0.00 | 0.00 | 0.00 | 36 | 1018.0 |
| 20260906034237 | 26 | 224 | 3.2 | 14.5 | 0.00 | 0.00 | 0.00 | 42 | 1017.9 |
| 20260906033737 | 26 | 172 | 3.2 | 14.5 | 0.00 | 0.00 | 0.00 | 46 | 1017.8 |
| 20260906033237 | 26 | 161 | 3.2 | 14.5 | 0.00 | 0.00 | 0.00 | 45 | 1017.8 |
| 20260906032758 | 26 | 169 | 4.8 | 11.3 | 0.00 | 0.00 | 0.00 | 44 | 1017.8 |
| 20260906032237 | 26 | 187 | 3.2 | 20.9 | 0.00 | 0.00 | 0.00 | 41 | 1017.7 |
| 20260906031737 | 26 | 159 | 6.4 | 20.9 | 0.00 | 0.00 | 0.00 | 40 | 1017.7 |
| 20260906031237 | 26 | 145 | 4.8 | 19.3 | 0.00 | 0.00 | 0.00 | 41 | 1017.6 |
| 20260906030737 | 26 | 220 | 4.8 | 19.3 | 0.00 | 0.00 | 0.00 | 43 | 1017.5 |
| 20260906030237 | 26 | 196 | 4.8 | 16.1 | 0.00 | 0.00 | 0.00 | 45 | 1017.4 |
| 20260906025758 | 25 | 195 | 6.4 | 24.1 | 0.00 | 0.00 | 0.00 | 42 | 1017.4 |
| 20260906025237 | 25 | 275 | 8.0 | 24.1 | 0.00 | 0.00 | 0.00 | 43 | 1017.5 |
| 20260906024737 | 25 | 189 | 4.8 | 17.7 | 0.00 | 0.00 | 0.00 | 43 | 1017.2 |
| 20260906024237 | 25 | 174 | 4.8 | 14.5 | 0.00 | 0.00 | 0.00 | 45 | 1017.0 |
| 20260906023737 | 25 | 197 | 1.6 | 8.0 | 0.00 | 0.00 | 0.00 | 44 | 1016.8 |
| 20260906023237 | 25 | 175 | 1.6 | 8.0 | 0.00 | 0.00 | 0.00 | 44 | 1016.8 |
| 20260906022737 | 25 | 162 | 1.6 | 4.8 | 0.00 | 0.00 | 0.00 | 44 | 1016.7 |
| 20260906022237 | 25 | 129 | 1.6 | 4.8 | 0.00 | 0.00 | 0.00 | 44 | 1016.7 |
| 20260906021737 | 25 | 185 | 1.6 | 4.8 | 0.00 | 0.00 | 0.00 | 44 | 1016.7 |
| 20260906021237 | 25 | 163 | 0.0 | 6.4 | 0.00 | 0.00 | 0.00 | 44 | 1016.6 |
| 20260906020737 | 25 | 204 | 1.6 | 6.4 | 0.00 | 0.00 | 0.00 | 43 | 1016.5 |
| 20260906020237 | 25 | 169 | 1.6 | 8.0 | 0.00 | 0.00 | 0.00 | 42 | 1016.5 |
| 20260906015737 | 26 | 187 | 3.2 | 8.0 | 0.00 | 0.00 | 0.00 | 42 | 1016.5 |
| 20260906015237 | 26 | 163 | 1.6 | 6.4 | 0.00 | 0.00 | 0.00 | 41 | 1016.4 |
| 20260906014737 | 26 | 184 | 0.0 | 6.4 | 0.00 | 0.00 | 0.00 | 41 | 1016.4 |
| 20260906014237 | 27 | 110 | 0.0 | 6.4 | 0.00 | 0.00 | 0.00 | 40 | 1016.3 |
| 20260906013737 | 27 | 159 | 1.6 | 9.7 | 0.00 | 0.00 | 0.00 | 39 | 1016.3 |
| 20260906013237 | 27 | 197 | 0.0 | 9.7 | 0.00 | 0.00 | 0.00 | 38 | 1016.3 |
| 20260906012737 | 27 | -1 | 1.6 | 11.3 | 0.00 | 0.00 | 0.00 | 37 | 1016.3 |
| 20260906012237 | 28 | 203 | 4.8 | 11.3 | 0.00 | 0.00 | 0.00 | 36 | 1016.2 |
| 20260906011737 | 29 | 131 | 0.0 | 6.4 | 0.00 | 0.00 | 0.00 | 33 | 1016.3 |
| 20260906011237 | 29 | 182 | 0.0 | 4.8 | 0.00 | 0.00 | 0.00 | 30 | 1016.2 |
| 20260906010737 | 30 | 179 | 0.0 | 4.8 | 0.00 | 0.00 | 0.00 | 30 | 1016.0 |
| 20260906010258 | 30 | 164 | 1.6 | 6.4 | 0.00 | 0.00 | 0.00 | 29 | 1016.1 |
| 20260906005737 | 30 | 183 | 1.6 | 6.4 | 0.00 | 0.00 | 0.00 | 28 | 1016.0 |
| 20260906005237 | 30 | -1 | 1.6 | 6.4 | 0.00 | 0.00 | 0.00 | 27 | 1016.0 |
| 20260906004737 | 31 | -1 | 1.6 | 6.4 | 0.00 | 0.00 | 0.00 | 27 | 1016.0 |
| 20260906004237 | 31 | -1 | 1.6 | 8.0 | 0.00 | 0.00 | 0.00 | 27 | 1016.0 |
| 20260906003737 | 31 | -1 | 3.2 | 8.0 | 0.00 | 0.00 | 0.00 | 26 | 1016.0 |
| 20260906003237 | 31 | -1 | 1.6 | 6.4 | 0.00 | 0.00 | 0.00 | 25 | 1015.9 |
| 20260906002737 | 32 | -1 | 0.0 | 4.8 | 0.00 | 0.00 | 0.00 | 24 | 1015.9 |
| 20260906002237 | 32 | -1 | 0.0 | 4.8 | 0.00 | 0.00 | 0.00 | 23 | 1015.9 |
| 20260906001737 | 32 | -1 | 1.6 | 4.8 | 0.00 | 0.00 | 0.00 | 22 | 1015.9 |
| 20260906001237 | 32 | -1 | 0.0 | 4.8 | 0.00 | 0.00 | 0.00 | 22 | 1015.8 |
| 20260906000737 | 33 | 169 | 1.6 | 4.8 | 0.00 | 0.00 | 0.00 | 21 | 1015.9 |
| 20260906000258 | 33 | 207 | 3.2 | 6.4 | 0.00 | 0.00 | 0.00 | 22 | 1015.8 |
| 20260905235737 | 33 | 201 | 0.0 | 6.4 | 0.00 | 0.00 | 0.00 | 22 | 1015.7 |
| 20260905235237 | 33 | 227 | 1.6 | 6.4 | 0.00 | 0.00 | 0.00 | 21 | 1015.7 |
| 20260905234737 | 33 | 191 | 0.0 | 4.8 | 0.00 | 0.00 | 0.00 | 22 | 1015.8 |
| 20260905234237 | 33 | 143 | 1.6 | 6.4 | 0.00 | 0.00 | 0.00 | 21 | 1015.8 |
| 20260905233737 | 33 | 182 | 1.6 | 9.7 | 0.00 | 0.00 | 0.00 | 22 | 1015.8 |
| 20260905233237 | 33 | 159 | 3.2 | 9.7 | 0.00 | 0.00 | 0.00 | 22 | 1015.7 |
| 20260905232737 | 33 | 130 | 1.6 | 8.0 | 0.00 | 0.00 | 0.00 | 22 | 1015.7 |
| 20260905232258 | 32 | 313 | 0.0 | 4.8 | 0.00 | 0.00 | 0.00 | 22 | 1015.7 |
| 20260905231737 | 32 | 106 | 1.6 | 6.4 | 0.00 | 0.00 | 0.00 | 22 | 1015.7 |
| 20260905231237 | 32 | 92 | 1.6 | 6.4 | 0.00 | 0.00 | 0.00 | 22 | 1015.8 |
| 20260905230737 | 32 | 132 | 1.6 | 6.4 | 0.00 | 0.00 | 0.00 | 21 | 1015.7 |
| 20260905230237 | 33 | 154 | 1.6 | 6.4 | 0.00 | 0.00 | 0.00 | 21 | 1015.8 |
| 20260905225737 | 33 | 153 | 1.6 | 9.7 | 0.00 | 0.00 | 0.00 | 20 | 1015.7 |
| 20260905225237 | 33 | 155 | 1.6 | 9.7 | 0.00 | 0.00 | 0.00 | 21 | 1015.7 |
| 20260905224737 | 33 | 135 | 3.2 | 4.8 | 0.00 | 0.00 | 0.00 | 22 | 1015.7 |
| 20260905224237 | 33 | 105 | 0.0 | 8.0 | 0.00 | 0.00 | 0.00 | 22 | 1015.8 |
| 20260905223737 | 33 | 63 | 4.8 | 8.0 | 0.00 | 0.00 | 0.00 | 22 | 1015.8 |
| 20260905223237 | 33 | 99 | 3.2 | 11.3 | 0.00 | 0.00 | 0.00 | 23 | 1015.8 |
| 20260905222737 | 33 | 109 | 3.2 | 11.3 | 0.00 | 0.00 | 0.00 | 23 | 1015.8 |
| 20260905222237 | 33 | 195 | 3.2 | 8.0 | 0.00 | 0.00 | 0.00 | 23 | 1015.8 |
| 20260905221737 | 33 | 178 | 3.2 | 8.0 | 0.00 | 0.00 | 0.00 | 23 | 1015.8 |
| 20260905221237 | 33 | 66 | 1.6 | 12.9 | 0.00 | 0.00 | 0.00 | 24 | 1015.7 |
| 20260905220737 | 33 | 85 | 3.2 | 12.9 | 0.00 | 0.00 | 0.00 | 23 | 1015.8 |
| 20260905220258 | 33 | 120 | 3.2 | 11.3 | 0.00 | 0.00 | 0.00 | 24 | 1015.9 |
| 20260905215737 | 33 | 50 | 1.6 | 6.4 | 0.00 | 0.00 | 0.00 | 26 | 1016.0 |
| 20260905215237 | 32 | 79 | 3.2 | 12.9 | 0.00 | 0.00 | 0.00 | 23 | 1016.0 |
| 20260905214737 | 33 | 128 | 6.4 | 12.9 | 0.00 | 0.00 | 0.00 | 24 | 1016.1 |
| 20260905214237 | 33 | 63 | 4.8 | 12.9 | 0.00 | 0.00 | 0.00 | 25 | 1016.0 |
| 20260905213737 | 33 | 83 | 6.4 | 11.3 | 0.00 | 0.00 | 0.00 | 25 | 1016.1 |
| 20260905213237 | 32 | 75 | 3.2 | 16.1 | 0.00 | 0.00 | 0.00 | 26 | 1016.1 |